Time,TemperatureF,DewpointF,PressureIn,WindDirection,WindDirectionDegrees,WindSpeedMPH,WindSpeedGustMPH,Humidity,HourlyPrecipIn,Conditions,Clouds,dailyrainin,SolarRadiationWatts/m^2,SoftwareType,DateUTC
2013-05-24 00:00:00,56.6,45.4,30.28,NE,44,0.0,1.2,66,0.00,FEW,,0.01,0.0,WeatherDisplay:10.37,2013-05-24 05:00:00,
2013-05-24 00:05:00,56.5,45.7,30.28,NNE,32,0.0,0.0,67,0.00,CLR,,0.00,0.0,WeatherDisplay:10.37,2013-05-24 05:05:00,
2013-05-24 00:10:00,56.4,45.6,30.28,NNE,32,0.0,0.0,67,0.00,CLR,,0.00,0.0,WeatherDisplay:10.37,2013-05-24 05:10:00,
2013-05-24 00:16:00,56.2,45.8,30.29,NNE,32,0.0,0.0,68,0.00,CLR,,0.00,0.0,WeatherDisplay:10.37,2013-05-24 05:16:00,
2013-05-24 00:21:00,55.9,45.5,30.29,NNE,32,0.0,2.3,68,0.00,CLR,,0.00,0.0,WeatherDisplay:10.37,2013-05-24 05:21:00,
2013-05-24 00:26:00,55.7,45.7,30.29,NNE,31,0.0,0.0,69,0.00,CLR,,0.00,0.0,WeatherDisplay:10.37,2013-05-24 05:26:00,
2013-05-24 00:31:00,55.5,45.5,30.29,NNE,32,0.0,0.0,69,0.00,CLR,,0.00,0.0,WeatherDisplay:10.37,2013-05-24 05:31:00,
2013-05-24 00:37:00,55.4,45.4,30.29,NNE,32,0.1,1.2,69,0.00,CLR,,0.00,0.0,WeatherDisplay:10.37,2013-05-24 05:37:00,
2013-05-24 00:42:00,55.3,45.3,30.30,NNE,32,0.0,0.0,69,0.00,CLR,,0.00,0.0,WeatherDisplay:10.37,2013-05-24 05:42:00,
2013-05-24 00:47:00,55.2,45.6,30.30,NNE,32,0.0,1.0,70,0.00,CLR,CLR,0.00,0.0,WeatherDisplay:10.37,2013-05-24 05:47:00,
2013-05-24 00:52:00,55.0,45.4,30.30,NNE,32,0.0,0.0,70,0.00,CLR,,0.00,0.0,WeatherDisplay:10.37,2013-05-24 05:52:00,
2013-05-24 00:58:00,54.8,45.6,30.30,NNE,32,0.1,2.0,71,0.00,CLR,,0.00,0.0,WeatherDisplay:10.37,2013-05-24 05:58:00,
2013-05-24 01:03:00,54.6,45.4,30.30,NNE,32,0.0,0.0,71,0.00,CLR,,0.00,0.0,WeatherDisplay:10.37,2013-05-24 06:03:00,
2013-05-24 01:08:00,54.5,45.3,30.31,NNE,32,0.0,0.0,71,0.00,CLR,,0.00,0.0,WeatherDisplay:10.37,2013-05-24 06:08:00,
2013-05-24 01:13:00,54.3,45.1,30.31,NNE,32,0.0,0.0,71,0.00,CLR,,0.00,0.0,WeatherDisplay:10.37,2013-05-24 06:13:00,
2013-05-24 01:19:00,54.0,45.2,30.31,NNE,32,0.0,0.0,72,0.00,CLR,,0.00,0.0,WeatherDisplay:10.37,2013-05-24 06:19:00,
2013-05-24 01:24:00,53.7,44.9,30.30,NNE,32,0.0,0.0,72,0.00,CLR,,0.00,0.0,WeatherDisplay:10.37,2013-05-24 06:24:00,
2013-05-24 01:29:00,53.4,45.0,30.30,NNE,32,0.0,1.2,73,0.00,CLR,,0.00,0.0,WeatherDisplay:10.37,2013-05-24 06:29:00,
2013-05-24 01:34:00,53.1,45.4,30.30,NNE,32,0.0,0.0,75,0.00,CLR,,0.00,0.0,WeatherDisplay:10.37,2013-05-24 06:34:00,
2013-05-24 01:40:00,53.0,45.3,30.30,NNE,32,0.0,0.0,75,0.00,CLR,,0.00,0.0,WeatherDisplay:10.37,2013-05-24 06:40:00,
2013-05-24 01:45:00,52.8,45.1,30.30,NNE,32,0.0,0.0,75,0.00,CLR,,0.00,0.0,WeatherDisplay:10.37,2013-05-24 06:45:00,
2013-05-24 01:50:00,52.6,45.2,30.30,NNE,32,0.0,0.0,76,0.00,CLR,,0.00,0.0,WeatherDisplay:10.37,2013-05-24 06:50:00,
2013-05-24 01:55:00,52.4,45.1,30.30,NNE,32,0.0,0.0,76,0.00,CLR,,0.00,0.0,WeatherDisplay:10.37,2013-05-24 06:55:00,
2013-05-24 02:01:00,52.2,44.9,30.31,NNE,32,0.0,0.0,76,0.00,CLR,,0.00,0.0,WeatherDisplay:10.37,2013-05-24 07:01:00,
2013-05-24 02:06:00,52.1,45.1,30.31,NNE,32,0.0,4.6,77,0.00,CLR,,0.00,0.0,WeatherDisplay:10.37,2013-05-24 07:06:00,
2013-05-24 02:11:00,51.9,44.9,30.31,NNE,32,0.0,0.0,77,0.00,CLR,,0.00,0.0,WeatherDisplay:10.37,2013-05-24 07:11:00,
2013-05-24 02:16:00,51.7,45.1,30.30,NNE,32,0.0,0.0,78,0.00,CLR,,0.00,0.0,WeatherDisplay:10.37,2013-05-24 07:16:00,
2013-05-24 02:22:00,51.6,45.0,30.30,NNE,32,0.0,0.0,78,0.00,CLR,,0.00,0.0,WeatherDisplay:10.37,2013-05-24 07:22:00,
2013-05-24 02:27:00,51.4,44.8,30.30,NNE,32,0.0,0.0,78,0.00,CLR,,0.00,0.0,WeatherDisplay:10.37,2013-05-24 07:27:00,
2013-05-24 02:32:00,51.3,44.7,30.30,NNE,32,0.0,1.0,78,0.00,CLR,CLR,0.00,0.0,WeatherDisplay:10.37,2013-05-24 07:32:00,
2013-05-24 02:37:00,51.2,44.9,30.30,NNE,32,0.0,0.0,79,0.00,CLR,,0.00,0.0,WeatherDisplay:10.37,2013-05-24 07:37:00,
2013-05-24 02:42:00,51.2,44.9,30.30,NNE,32,0.0,0.0,79,0.00,CLR,,0.00,0.0,WeatherDisplay:10.37,2013-05-24 07:42:00,
2013-05-24 02:48:00,51.1,44.8,30.31,NNE,32,0.0,0.0,79,0.00,CLR,,0.00,0.0,WeatherDisplay:10.37,2013-05-24 07:48:00,
2013-05-24 02:53:00,51.0,45.0,30.31,NNE,32,0.0,0.0,80,0.00,CLR,,0.00,0.0,WeatherDisplay:10.37,2013-05-24 07:53:00,
2013-05-24 02:58:00,50.9,44.9,30.31,NNE,32,0.0,0.0,80,0.00,CLR,,0.00,0.0,WeatherDisplay:10.37,2013-05-24 07:58:00,
2013-05-24 03:03:00,50.7,44.8,30.31,NNE,32,0.0,0.0,80,0.00,CLR,,0.00,0.0,WeatherDisplay:10.37,2013-05-24 08:03:00,
2013-05-24 03:09:00,50.5,44.9,30.31,NNE,32,0.0,0.0,81,0.00,CLR,,0.00,0.0,WeatherDisplay:10.37,2013-05-24 08:09:00,
2013-05-24 03:14:00,50.3,44.7,30.31,NNE,32,0.0,0.0,81,0.00,CLR,,0.00,0.0,WeatherDisplay:10.37,2013-05-24 08:14:00,
2013-05-24 03:19:00,50.1,44.5,30.31,NNE,32,0.0,0.0,81,0.00,CLR,,0.00,0.0,WeatherDisplay:10.37,2013-05-24 08:19:00,
2013-05-24 03:24:00,50.2,44.6,30.31,NNE,32,0.0,0.0,81,0.00,CLR,,0.00,0.0,WeatherDisplay:10.37,2013-05-24 08:24:00,
2013-05-24 03:30:00,50.1,44.5,30.31,NNE,32,0.0,0.0,81,0.00,CLR,,0.00,0.0,WeatherDisplay:10.37,2013-05-24 08:30:00,
2013-05-24 03:35:00,50.1,44.2,30.31,NNE,32,0.0,0.0,80,0.00,CLR,,0.00,0.0,WeatherDisplay:10.37,2013-05-24 08:35:00,
2013-05-24 03:40:00,50.1,44.2,30.31,NNE,32,0.0,0.0,80,0.00,CLR,,0.00,0.0,WeatherDisplay:10.37,2013-05-24 08:40:00,
2013-05-24 03:45:00,50.0,44.1,30.31,NNE,32,0.0,0.0,80,0.00,CLR,,0.00,0.0,WeatherDisplay:10.37,2013-05-24 08:45:00,
2013-05-24 03:51:00,50.0,44.1,30.32,NNE,32,0.0,0.0,80,0.00,CLR,,0.00,0.0,WeatherDisplay:10.37,2013-05-24 08:51:00,
2013-05-24 03:56:00,50.1,44.2,30.32,NNE,32,0.0,0.0,80,0.00,CLR,,0.00,0.0,WeatherDisplay:10.37,2013-05-24 08:56:00,
2013-05-24 04:01:00,50.3,44.0,30.32,NNE,32,0.0,0.0,79,0.00,CLR,,0.00,0.0,WeatherDisplay:10.37,2013-05-24 09:01:00,
2013-05-24 04:06:00,50.3,44.0,30.32,NNE,32,0.0,0.0,79,0.00,CLR,,0.00,0.0,WeatherDisplay:10.37,2013-05-24 09:06:00,
2013-05-24 04:12:00,50.2,43.9,30.33,NNE,32,0.0,0.0,79,0.00,CLR,,0.00,0.0,WeatherDisplay:10.37,2013-05-24 09:12:00,
2013-05-24 04:17:00,50.0,43.7,30.32,NNE,32,0.0,0.0,79,0.00,CLR,,0.00,0.0,WeatherDisplay:10.37,2013-05-24 09:17:00,
2013-05-24 04:22:00,49.8,43.9,30.32,NNE,32,0.0,0.0,80,0.00,CLR,CLR,0.00,0.0,WeatherDisplay:10.37,2013-05-24 09:22:00,
2013-05-24 04:27:00,49.7,44.1,30.32,NNE,32,0.0,0.0,81,0.00,CLR,CLR,0.00,0.0,WeatherDisplay:10.37,2013-05-24 09:27:00,
2013-05-24 04:32:00,49.6,44.0,30.32,NE,55,0.0,1.0,81,0.00,CLR,CLR,0.00,0.0,WeatherDisplay:10.37,2013-05-24 09:32:00,
2013-05-24 04:37:00,49.4,43.8,30.32,ENE,76,0.0,1.2,81,0.00,CLR,,0.00,0.0,WeatherDisplay:10.37,2013-05-24 09:37:00,
2013-05-24 04:42:00,49.3,43.7,30.32,East,88,0.0,0.0,81,0.00,CLR,,0.00,0.0,WeatherDisplay:10.37,2013-05-24 09:42:00,
2013-05-24 04:48:00,49.2,43.6,30.32,East,88,0.0,0.0,81,0.00,CLR,,0.00,0.0,WeatherDisplay:10.37,2013-05-24 09:48:00,
2013-05-24 04:53:00,49.1,43.5,30.33,East,88,0.0,0.0,81,0.00,CLR,,0.00,0.0,WeatherDisplay:10.37,2013-05-24 09:53:00,
2013-05-24 04:58:00,49.0,43.4,30.32,East,88,0.0,0.0,81,0.00,CLR,,0.00,0.0,WeatherDisplay:10.37,2013-05-24 09:58:00,
2013-05-24 05:03:00,48.8,43.2,30.33,East,88,0.0,0.0,81,0.00,CLR,,0.00,0.0,WeatherDisplay:10.37,2013-05-24 10:03:00,
2013-05-24 05:09:00,48.7,43.5,30.33,East,88,0.0,0.0,82,0.00,CLR,,0.00,0.0,WeatherDisplay:10.37,2013-05-24 10:09:00,
2013-05-24 05:14:00,48.6,43.4,30.33,East,88,0.0,0.0,82,0.00,CLR,,0.00,0.0,WeatherDisplay:10.37,2013-05-24 10:14:00,
2013-05-24 05:19:00,48.4,43.5,30.33,East,88,0.0,0.0,83,0.00,CLR,,0.00,0.0,WeatherDisplay:10.37,2013-05-24 10:19:00,
2013-05-24 05:24:00,48.3,43.4,30.33,East,88,0.0,0.0,83,0.00,CLR,,0.00,0.0,WeatherDisplay:10.37,2013-05-24 10:24:00,
2013-05-24 05:30:00,48.2,43.3,30.33,East,88,0.0,0.0,83,0.00,CLR,,0.00,0.0,WeatherDisplay:10.37,2013-05-24 10:30:00,
2013-05-24 05:35:00,48.1,43.2,30.33,East,88,0.0,0.0,83,0.00,CLR,,0.00,0.0,WeatherDisplay:10.37,2013-05-24 10:35:00,
2013-05-24 05:40:00,48.0,43.1,30.33,East,88,0.0,0.0,83,0.00,CLR,,0.00,0.0,WeatherDisplay:10.37,2013-05-24 10:40:00,
2013-05-24 05:45:00,48.0,43.1,30.33,East,88,0.0,0.0,83,0.00,CLR,,0.00,0.0,WeatherDisplay:10.37,2013-05-24 10:45:00,
2013-05-24 05:51:00,48.0,43.1,30.34,East,88,0.0,0.0,83,0.00,CLR,,0.00,7.0,WeatherDisplay:10.37,2013-05-24 10:51:00,
2013-05-24 05:56:00,48.0,42.8,30.34,East,88,0.0,0.0,82,0.00,CLR,,0.00,9.8,WeatherDisplay:10.37,2013-05-24 10:56:00,
2013-05-24 06:01:00,48.0,42.8,30.34,East,88,0.0,0.0,82,0.00,FEW,,0.00,12.6,WeatherDisplay:10.37,2013-05-24 11:01:00,
2013-05-24 06:06:00,48.1,43.2,30.34,East,88,0.0,0.0,83,0.00,FEW,,0.00,15.4,WeatherDisplay:10.37,2013-05-24 11:06:00,
2013-05-24 06:12:00,48.2,43.0,30.34,East,88,0.0,0.0,82,0.00,FEW,,0.00,19.6,WeatherDisplay:10.37,2013-05-24 11:12:00,
2013-05-24 06:17:00,48.3,43.1,30.34,SE,127,0.0,0.0,82,0.00,FEW,,0.00,22.4,WeatherDisplay:10.37,2013-05-24 11:17:00,
2013-05-24 06:22:00,48.5,43.3,30.33,SE,138,0.0,0.0,82,0.00,FEW,,0.00,25.2,WeatherDisplay:10.37,2013-05-24 11:22:00,
2013-05-24 06:27:00,48.8,43.2,30.34,SE,138,0.0,0.0,81,0.00,FEW,,0.00,32.2,WeatherDisplay:10.37,2013-05-24 11:27:00,
2013-05-24 06:33:00,49.4,43.5,30.34,SE,138,0.0,0.0,80,0.00,FEW,,0.00,29.4,WeatherDisplay:10.37,2013-05-24 11:33:00,
2013-05-24 06:38:00,49.7,43.5,30.35,SE,138,0.0,0.0,79,0.00,FEW,,0.00,26.6,WeatherDisplay:10.37,2013-05-24 11:38:00,
2013-05-24 06:43:00,50.2,43.9,30.34,SE,138,0.0,0.0,79,0.00,FEW,,0.00,39.2,WeatherDisplay:10.37,2013-05-24 11:43:00,
2013-05-24 06:48:00,50.7,44.1,30.35,NNE,24,0.0,0.0,78,0.00,FEW,,0.00,44.8,WeatherDisplay:10.37,2013-05-24 11:48:00,
2013-05-24 06:54:00,51.3,44.3,30.35,NNE,24,0.0,0.0,77,0.00,FEW,,0.00,46.2,WeatherDisplay:10.37,2013-05-24 11:54:00,
2013-05-24 06:59:00,52.1,45.1,30.34,NE,42,0.0,0.0,77,0.00,FEW,,0.00,49.0,WeatherDisplay:10.37,2013-05-24 11:59:00,
2013-05-24 07:04:00,52.6,45.2,30.34,SSE,149,0.0,0.0,76,0.00,FEW,,0.00,51.8,WeatherDisplay:10.37,2013-05-24 12:04:00,
2013-05-24 07:09:00,53.2,45.5,30.34,SSE,157,0.0,0.0,75,0.00,FEW,,0.00,68.6,WeatherDisplay:10.37,2013-05-24 12:09:00,
2013-05-24 07:15:00,53.9,45.8,30.34,ENE,73,0.0,0.0,74,0.00,FEW,,0.00,58.8,WeatherDisplay:10.37,2013-05-24 12:15:00,
2013-05-24 07:20:00,54.4,45.9,30.35,SE,137,0.3,2.0,73,0.00,FEW,,0.00,56.0,WeatherDisplay:10.37,2013-05-24 12:20:00,
2013-05-24 07:25:00,54.7,46.6,30.35,ESE,113,0.1,1.2,74,0.00,FEW,,0.00,58.8,WeatherDisplay:10.37,2013-05-24 12:25:00,
2013-05-24 07:31:00,54.9,46.4,30.35,ESE,113,0.0,0.0,73,0.00,FEW,,0.00,58.8,WeatherDisplay:10.37,2013-05-24 12:31:00,
2013-05-24 07:36:00,55.1,47.0,30.36,NNE,18,0.4,3.5,74,0.00,FEW,,0.00,61.6,WeatherDisplay:10.37,2013-05-24 12:36:00,
2013-05-24 07:41:00,55.2,46.7,30.36,ESE,112,0.0,0.0,73,0.00,FEW,,0.00,61.6,WeatherDisplay:10.37,2013-05-24 12:41:00,
2013-05-24 07:46:00,55.3,46.8,30.36,SE,145,0.1,1.2,73,0.00,FEW,,0.00,65.8,WeatherDisplay:10.37,2013-05-24 12:46:00,
2013-05-24 07:52:00,55.3,46.8,30.36,NW,315,0.2,3.5,73,0.00,FEW,,0.00,65.8,WeatherDisplay:10.37,2013-05-24 12:52:00,
2013-05-24 07:57:00,55.4,46.9,30.36,ESE,117,0.3,2.3,73,0.00,FEW,,0.00,65.8,WeatherDisplay:10.37,2013-05-24 12:57:00,
2013-05-24 08:02:00,55.6,47.4,30.37,ESE,115,0.0,2.0,74,0.00,FEW,FEW,0.00,68.6,WeatherDisplay:10.37,2013-05-24 13:02:00,
2013-05-24 08:07:00,55.9,47.4,30.37,SE,124,0.6,3.5,73,0.00,FEW,,0.00,71.4,WeatherDisplay:10.37,2013-05-24 13:07:00,
2013-05-24 08:13:00,56.2,47.7,30.37,SW,221,0.0,0.0,73,0.00,FEW,,0.00,74.2,WeatherDisplay:10.37,2013-05-24 13:13:00,
2013-05-24 08:18:00,56.5,48.3,30.37,ENE,65,0.2,1.0,74,0.00,FEW,,0.00,74.2,WeatherDisplay:10.37,2013-05-24 13:18:00,
2013-05-24 08:23:00,56.7,48.5,30.37,ESE,102,0.1,1.2,74,0.00,FEW,,0.00,130.2,WeatherDisplay:10.37,2013-05-24 13:23:00,
2013-05-24 08:28:00,56.9,49.1,30.37,ESE,102,0.0,0.0,75,0.00,FEW,,0.00,93.8,WeatherDisplay:10.37,2013-05-24 13:28:00,
2013-05-24 08:34:00,57.2,49.3,30.36,ENE,64,0.2,2.3,75,0.00,FEW,,0.00,98.0,WeatherDisplay:10.37,2013-05-24 13:34:00,
2013-05-24 08:39:00,57.6,49.4,30.36,SE,138,0.3,3.5,74,0.00,FEW,,0.00,84.0,WeatherDisplay:10.37,2013-05-24 13:39:00,
2013-05-24 08:44:00,57.7,49.1,30.36,SE,138,0.2,4.0,73,0.00,FEW,,0.00,86.8,WeatherDisplay:10.37,2013-05-24 13:44:00,
2013-05-24 08:49:00,58.0,49.8,30.36,SE,136,0.2,1.2,74,0.00,FEW,,0.00,84.0,WeatherDisplay:10.37,2013-05-24 13:49:00,
2013-05-24 08:55:00,58.4,50.1,30.36,SE,133,0.0,0.0,74,0.00,FEW,,0.00,84.0,WeatherDisplay:10.37,2013-05-24 13:55:00,
2013-05-24 09:00:00,58.7,50.4,30.36,ESE,118,0.5,5.8,74,0.00,FEW,,0.00,86.8,WeatherDisplay:10.37,2013-05-24 14:00:00,
2013-05-24 09:05:00,59.1,51.5,30.36,ESE,103,0.0,0.0,76,0.00,FEW,,0.00,93.8,WeatherDisplay:10.37,2013-05-24 14:05:00,
2013-05-24 09:10:00,59.5,51.2,30.36,SSW,210,1.9,4.6,74,0.00,FEW,,0.00,88.2,WeatherDisplay:10.37,2013-05-24 14:10:00,
2013-05-24 09:16:00,59.6,51.3,30.36,SE,145,0.5,4.0,74,0.00,FEW,,0.00,88.2,WeatherDisplay:10.37,2013-05-24 14:16:00,
2013-05-24 09:21:00,59.9,51.6,30.36,ESE,107,2.4,4.0,74,0.00,FEW,,0.00,91.0,WeatherDisplay:10.37,2013-05-24 14:21:00,
2013-05-24 09:26:00,60.1,51.4,30.36,SE,130,0.1,1.2,73,0.00,FEW,,0.00,91.0,WeatherDisplay:10.37,2013-05-24 14:26:00,
2013-05-24 09:31:00,60.4,52.4,30.36,SE,130,0.0,1.2,75,0.00,FEW,,0.00,93.8,WeatherDisplay:10.37,2013-05-24 14:31:00,
2013-05-24 09:37:00,60.7,52.4,30.36,South,191,2.4,5.8,74,0.00,FEW,,0.00,96.6,WeatherDisplay:10.37,2013-05-24 14:37:00,
2013-05-24 09:42:00,61.1,52.4,30.37,South,184,0.5,2.3,73,0.00,FEW,,0.00,98.0,WeatherDisplay:10.37,2013-05-24 14:42:00,
2013-05-24 09:47:00,61.4,52.7,30.36,South,183,1.0,12.0,73,0.00,FEW,FEW,0.00,100.8,WeatherDisplay:10.37,2013-05-24 14:47:00,
2013-05-24 09:52:00,61.8,52.3,30.36,South,171,2.2,4.6,71,0.00,FEW,,0.00,107.8,WeatherDisplay:10.37,2013-05-24 14:52:00,
2013-05-24 09:57:00,61.9,52.8,30.35,SSW,194,1.1,5.8,72,0.00,FEW,,0.00,100.8,WeatherDisplay:10.37,2013-05-24 14:57:00,
2013-05-24 10:03:00,62.3,53.2,30.36,SSW,195,0.6,3.5,72,0.00,FEW,,0.00,103.6,WeatherDisplay:10.37,2013-05-24 15:03:00,
2013-05-24 10:08:00,62.5,52.6,30.36,South,186,1.1,4.6,70,0.00,FEW,,0.00,142.8,WeatherDisplay:10.37,2013-05-24 15:08:00,
2013-05-24 10:13:00,62.7,53.2,30.36,East,95,0.0,1.2,71,0.00,FEW,,0.00,169.4,WeatherDisplay:10.37,2013-05-24 15:13:00,
2013-05-24 10:18:00,62.9,53.4,30.35,SSE,151,0.7,4.0,71,0.00,FEW,,0.00,249.2,WeatherDisplay:10.37,2013-05-24 15:18:00,
2013-05-24 10:24:00,63.3,53.0,30.35,ESE,121,0.2,2.3,69,0.00,FEW,,0.00,165.2,WeatherDisplay:10.37,2013-05-24 15:24:00,
2013-05-24 10:29:00,63.9,53.5,30.35,South,180,1.7,7.0,69,0.00,FEW,,0.00,807.8,WeatherDisplay:10.37,2013-05-24 15:29:00,
2013-05-24 10:34:00,64.3,53.1,30.35,South,171,0.9,5.0,67,0.00,FEW,,0.00,1292.2,WeatherDisplay:10.37,2013-05-24 15:34:00,
2013-05-24 10:39:00,64.5,52.9,30.35,ESE,120,2.5,8.1,66,0.00,FEW,,0.00,1282.4,WeatherDisplay:10.37,2013-05-24 15:39:00,
2013-05-24 10:45:00,64.8,52.8,30.35,ESE,115,1.8,7.0,65,0.00,FEW,,0.00,1334.2,WeatherDisplay:10.37,2013-05-24 15:45:00,
2013-05-24 10:50:00,65.0,52.1,30.35,SE,138,0.5,4.6,63,0.00,FEW,,0.00,373.8,WeatherDisplay:10.37,2013-05-24 15:50:00,
2013-05-24 10:55:00,64.7,51.8,30.34,NNE,22,0.1,2.3,63,0.00,FEW,,0.00,1269.8,WeatherDisplay:10.37,2013-05-24 15:55:00,
2013-05-24 11:00:00,64.9,52.0,30.34,SE,130,0.3,3.5,63,0.00,FEW,,0.00,308.0,WeatherDisplay:10.37,2013-05-24 16:00:00,
2013-05-24 11:06:00,64.9,51.6,30.34,SSE,152,2.3,5.0,62,0.00,SCT,,0.00,539.0,WeatherDisplay:10.37,2013-05-24 16:06:00,
2013-05-24 11:11:00,65.0,51.2,30.34,SE,128,0.2,2.3,61,0.00,SCT,,0.00,539.0,WeatherDisplay:10.37,2013-05-24 16:11:00,
2013-05-24 11:16:00,65.4,51.6,30.33,ENE,61,0.1,5.8,61,0.00,SCT,,0.00,1260.0,WeatherDisplay:10.37,2013-05-24 16:16:00,
2013-05-24 11:21:00,65.9,51.6,30.33,SE,146,1.7,5.8,60,0.00,SCT,,0.00,1435.0,WeatherDisplay:10.37,2013-05-24 16:21:00,
2013-05-24 11:27:00,66.2,51.9,30.33,ESE,111,0.9,4.0,60,0.00,SCT,,0.00,1415.4,WeatherDisplay:10.37,2013-05-24 16:27:00,
2013-05-24 11:32:00,66.5,51.3,30.33,ESE,104,0.5,5.8,58,0.00,SCT,,0.00,1474.2,WeatherDisplay:10.37,2013-05-24 16:32:00,
2013-05-24 11:37:00,66.3,51.1,30.33,SE,124,1.0,5.0,58,0.00,SCT,SCT,0.00,1528.8,WeatherDisplay:10.37,2013-05-24 16:37:00,
2013-05-24 11:42:00,67.2,52.4,30.33,SE,131,3.0,10.0,59,0.00,SCT,SCT,0.00,1488.2,WeatherDisplay:10.37,2013-05-24 16:42:00,
2013-05-24 11:47:00,66.6,51.8,30.33,SE,137,1.0,6.0,59,0.00,SCT,SCT,0.00,1523.2,WeatherDisplay:10.37,2013-05-24 16:47:00,
2013-05-24 11:52:00,67.0,52.7,30.33,SE,145,2.1,6.9,60,0.00,SCT,,0.00,1442.0,WeatherDisplay:10.37,2013-05-24 16:52:00,
2013-05-24 11:57:00,66.8,52.5,30.33,SSE,150,1.0,3.5,60,0.00,SCT,,0.00,1478.4,WeatherDisplay:10.37,2013-05-24 16:57:00,
2013-05-24 12:03:00,66.7,51.5,30.33,South,190,3.7,9.2,58,0.00,FEW,,0.00,1516.2,WeatherDisplay:10.37,2013-05-24 17:03:00,
2013-05-24 12:08:00,67.5,52.2,30.32,SE,128,0.0,2.3,58,0.00,FEW,,0.00,1432.2,WeatherDisplay:10.37,2013-05-24 17:08:00,
2013-05-24 12:13:00,68.5,52.2,30.32,SW,217,1.6,5.0,56,0.00,FEW,,0.00,1449.0,WeatherDisplay:10.37,2013-05-24 17:13:00,
2013-05-24 12:18:00,67.8,51.5,30.31,SE,142,2.3,3.5,56,0.00,FEW,,0.00,1442.0,WeatherDisplay:10.37,2013-05-24 17:18:00,
2013-05-24 12:24:00,67.3,52.5,30.32,North,355,0.5,3.5,59,0.00,FEW,,0.00,1477.0,WeatherDisplay:10.37,2013-05-24 17:24:00,
2013-05-24 12:29:00,68.1,52.3,30.32,NNE,33,0.8,3.5,57,0.00,FEW,,0.00,1488.2,WeatherDisplay:10.37,2013-05-24 17:29:00,
2013-05-24 12:34:00,67.7,51.9,30.32,SE,144,3.4,8.0,57,0.00,FEW,,0.00,1457.4,WeatherDisplay:10.37,2013-05-24 17:34:00,
2013-05-24 12:39:00,67.0,50.8,30.31,SSW,213,2.3,5.8,56,0.00,FEW,,0.00,1506.4,WeatherDisplay:10.37,2013-05-24 17:39:00,
2013-05-24 12:45:00,67.4,52.6,30.31,East,101,0.0,0.0,59,0.00,FEW,,0.00,1447.6,WeatherDisplay:10.37,2013-05-24 17:45:00,
2013-05-24 12:50:00,68.1,51.3,30.31,SE,132,0.3,9.2,55,0.00,FEW,,0.00,1464.4,WeatherDisplay:10.37,2013-05-24 17:50:00,
2013-05-24 12:55:00,68.3,52.5,30.31,ESE,109,1.5,6.0,57,0.00,FEW,,0.00,1468.6,WeatherDisplay:10.37,2013-05-24 17:55:00,
2013-05-24 13:00:00,68.6,52.3,30.31,SSW,202,3.9,8.1,56,0.00,FEW,,0.00,1442.0,WeatherDisplay:10.37,2013-05-24 18:00:00,
2013-05-24 13:06:00,68.4,52.1,30.31,ESE,123,0.9,2.3,56,0.00,FEW,,0.00,1457.4,WeatherDisplay:10.37,2013-05-24 18:06:00,
2013-05-24 13:11:00,68.4,52.1,30.31,West,270,1.3,3.0,56,0.00,FEW,,0.00,1464.4,WeatherDisplay:10.37,2013-05-24 18:11:00,
2013-05-24 13:16:00,68.9,54.0,30.30,SE,138,0.3,3.5,59,0.00,FEW,,0.00,1447.6,WeatherDisplay:10.37,2013-05-24 18:16:00,
2013-05-24 13:21:00,69.2,52.8,30.30,SE,138,0.7,3.5,56,0.00,FEW,,0.00,1451.8,WeatherDisplay:10.37,2013-05-24 18:21:00,
2013-05-24 13:27:00,68.8,52.9,30.30,NE,49,0.1,3.5,57,0.00,FEW,,0.00,1442.0,WeatherDisplay:10.37,2013-05-24 18:27:00,
2013-05-24 13:32:00,68.7,52.4,30.30,ESE,103,0.3,2.3,56,0.00,FEW,,0.00,1444.8,WeatherDisplay:10.37,2013-05-24 18:32:00,
2013-05-24 13:37:00,69.0,53.1,30.30,SSW,192,1.0,3.5,57,0.00,FEW,,0.00,1437.8,WeatherDisplay:10.37,2013-05-24 18:37:00,
2013-05-24 13:42:00,69.2,53.3,30.30,NE,48,0.9,4.6,57,0.00,FEW,,0.00,1447.6,WeatherDisplay:10.37,2013-05-24 18:42:00,
2013-05-24 13:48:00,69.9,53.5,30.30,SSW,207,0.3,5.8,56,0.00,FEW,,0.00,1432.2,WeatherDisplay:10.37,2013-05-24 18:48:00,
2013-05-24 13:53:00,69.7,51.3,30.30,SSE,166,2.5,7.0,52,0.00,FEW,,0.00,1428.0,WeatherDisplay:10.37,2013-05-24 18:53:00,
2013-05-24 13:58:00,69.4,52.5,30.31,ESE,122,3.5,13.8,55,0.00,FEW,,0.00,1458.8,WeatherDisplay:10.37,2013-05-24 18:58:00,
2013-05-24 14:03:00,69.3,51.4,30.30,WSW,240,0.1,5.8,53,0.00,FEW,,0.00,1405.6,WeatherDisplay:10.37,2013-05-24 19:03:00,
2013-05-24 14:09:00,69.9,54.0,30.29,ESE,105,1.4,3.5,57,0.00,FEW,,0.00,1386.0,WeatherDisplay:10.37,2013-05-24 19:09:00,
2013-05-24 14:14:00,69.2,53.3,30.29,ENE,60,1.2,5.8,57,0.00,FEW,,0.00,1422.4,WeatherDisplay:10.37,2013-05-24 19:14:00,
2013-05-24 14:19:00,69.4,52.0,30.29,WSW,243,3.5,6.9,54,0.00,FEW,,0.00,1324.4,WeatherDisplay:10.37,2013-05-24 19:19:00,
2013-05-24 14:24:00,69.7,53.8,30.29,SW,217,0.1,1.2,57,0.00,FEW,,0.00,1338.4,WeatherDisplay:10.37,2013-05-24 19:24:00,
2013-05-24 14:30:00,70.3,52.9,30.28,SW,229,0.4,3.5,54,0.00,FEW,,0.00,1356.6,WeatherDisplay:10.37,2013-05-24 19:30:00,
2013-05-24 14:35:00,70.7,53.2,30.28,SSE,167,1.0,3.5,54,0.00,FEW,,0.00,1341.2,WeatherDisplay:10.37,2013-05-24 19:35:00,
2013-05-24 14:40:00,70.6,52.6,30.28,SE,135,1.2,6.9,53,0.00,FEW,,0.00,1006.6,WeatherDisplay:10.37,2013-05-24 19:40:00,
2013-05-24 14:45:00,70.5,53.1,30.27,SE,143,4.5,13.0,54,0.00,FEW,,0.00,1325.8,WeatherDisplay:10.37,2013-05-24 19:45:00,
2013-05-24 14:51:00,70.7,52.7,30.27,SW,232,0.5,3.5,53,0.00,FEW,,0.00,1309.0,WeatherDisplay:10.37,2013-05-24 19:51:00,
2013-05-24 14:56:00,70.3,52.4,30.27,ESE,107,0.1,3.5,53,0.00,FEW,,0.00,1302.0,WeatherDisplay:10.37,2013-05-24 19:56:00,
2013-05-24 15:01:00,70.3,52.9,30.27,ESE,103,0.7,7.0,54,0.00,FEW,,0.00,1289.4,WeatherDisplay:10.37,2013-05-24 20:01:00,
2013-05-24 15:06:00,70.3,52.9,30.26,SSW,192,0.2,2.3,54,0.00,FEW,,0.00,1276.8,WeatherDisplay:10.37,2013-05-24 20:06:00,
2013-05-24 15:12:00,70.7,53.2,30.26,ESE,111,0.8,8.0,54,0.00,FEW,,0.00,1260.0,WeatherDisplay:10.37,2013-05-24 20:12:00,
2013-05-24 15:17:00,70.6,52.6,30.26,SE,143,1.4,4.6,53,0.00,FEW,,0.00,1247.4,WeatherDisplay:10.37,2013-05-24 20:17:00,
2013-05-24 15:22:00,70.0,52.1,30.26,SE,126,4.6,11.5,53,0.00,FEW,,0.00,1233.4,WeatherDisplay:10.37,2013-05-24 20:22:00,
2013-05-24 15:28:00,69.7,51.3,30.26,SE,140,0.7,3.5,52,0.00,FEW,,0.00,1220.8,WeatherDisplay:10.37,2013-05-24 20:28:00,
2013-05-24 15:33:00,70.6,51.1,30.25,SE,134,0.7,3.5,50,0.00,FEW,,0.00,1201.2,WeatherDisplay:10.37,2013-05-24 20:33:00,
2013-05-24 15:38:00,70.4,51.4,30.25,SSE,163,2.4,5.8,51,0.00,FEW,,0.00,1178.8,WeatherDisplay:10.37,2013-05-24 20:38:00,
2013-05-24 15:43:00,70.5,50.4,30.25,NE,42,0.1,3.5,49,0.00,FEW,,0.00,1153.6,WeatherDisplay:10.37,2013-05-24 20:43:00,
2013-05-24 15:49:00,70.4,50.9,30.25,ESE,109,0.9,6.9,50,0.00,FEW,,0.00,1146.6,WeatherDisplay:10.37,2013-05-24 20:49:00,
2013-05-24 15:54:00,70.7,51.7,30.25,ENE,66,1.6,3.5,51,0.00,FEW,,0.00,1117.2,WeatherDisplay:10.37,2013-05-24 20:54:00,
2013-05-24 15:59:00,70.7,51.1,30.25,SE,146,3.4,11.5,50,0.00,FEW,,0.00,1107.4,WeatherDisplay:10.37,2013-05-24 20:59:00,
2013-05-24 16:04:00,70.9,51.3,30.25,SSW,209,2.1,6.9,50,0.00,FEW,,0.00,1080.8,WeatherDisplay:10.37,2013-05-24 21:04:00,
2013-05-24 16:10:00,71.1,51.0,30.25,East,101,0.1,3.5,49,0.00,FEW,,0.00,1061.2,WeatherDisplay:10.37,2013-05-24 21:10:00,
2013-05-24 16:15:00,70.8,52.3,30.24,South,177,0.5,11.5,52,0.00,FEW,,0.00,1043.0,WeatherDisplay:10.37,2013-05-24 21:15:00,
2013-05-24 16:20:00,70.5,51.5,30.24,SSE,157,1.9,6.9,51,0.00,FEW,,0.00,1020.6,WeatherDisplay:10.37,2013-05-24 21:20:00,
2013-05-24 16:25:00,70.7,50.0,30.24,ESE,117,3.6,11.0,48,0.00,FEW,,0.00,1001.0,WeatherDisplay:10.37,2013-05-24 21:25:00,
2013-05-24 16:31:00,70.2,50.1,30.23,SE,136,0.6,7.0,49,0.00,FEW,,0.00,981.4,WeatherDisplay:10.37,2013-05-24 21:31:00,
2013-05-24 16:36:00,70.7,51.7,30.24,SSE,156,0.6,3.5,51,0.00,FEW,,0.00,960.4,WeatherDisplay:10.37,2013-05-24 21:36:00,
2013-05-24 16:41:00,70.3,51.8,30.24,ESE,121,1.5,6.0,52,0.00,FEW,,0.00,932.4,WeatherDisplay:10.37,2013-05-24 21:41:00,
2013-05-24 16:47:00,71.2,51.1,30.24,South,179,3.3,9.2,49,0.00,FEW,,0.00,910.0,WeatherDisplay:10.37,2013-05-24 21:47:00,
2013-05-24 16:52:00,70.7,52.2,30.23,South,175,0.6,3.0,52,0.00,FEW,,0.00,896.0,WeatherDisplay:10.37,2013-05-24 21:52:00,
2013-05-24 16:57:00,70.7,50.6,30.24,SSE,148,3.0,12.0,49,0.00,FEW,FEW,0.00,208.6,WeatherDisplay:10.37,2013-05-24 21:57:00,
2013-05-24 17:02:00,70.4,50.9,30.23,SE,130,1.0,10.0,50,0.00,FEW,FEW,0.00,147.0,WeatherDisplay:10.37,2013-05-24 22:02:00,
2013-05-24 17:07:00,70.4,50.3,30.24,SE,144,3.4,4.0,49,0.00,FEW,,0.00,133.0,WeatherDisplay:10.37,2013-05-24 22:07:00,
2013-05-24 17:12:00,70.4,49.2,30.23,ESE,104,0.6,3.5,47,0.00,FEW,,0.00,133.0,WeatherDisplay:10.37,2013-05-24 22:12:00,
2013-05-24 17:17:00,70.2,50.1,30.23,SE,130,2.2,6.9,49,0.00,FEW,,0.00,133.0,WeatherDisplay:10.37,2013-05-24 22:17:00,
2013-05-24 17:23:00,70.3,49.7,30.23,NW,310,0.2,2.3,48,0.00,FEW,,0.00,135.8,WeatherDisplay:10.37,2013-05-24 22:23:00,
2013-05-24 17:28:00,70.3,50.2,30.23,South,172,0.0,0.0,49,0.00,FEW,,0.00,135.8,WeatherDisplay:10.37,2013-05-24 22:28:00,
2013-05-24 17:33:00,70.3,49.7,30.23,SE,128,0.0,1.2,48,0.00,FEW,,0.00,165.2,WeatherDisplay:10.37,2013-05-24 22:33:00,
2013-05-24 17:38:00,70.1,50.0,30.23,SSW,200,1.3,2.3,49,0.00,FEW,,0.00,137.2,WeatherDisplay:10.37,2013-05-24 22:38:00,
2013-05-24 17:44:00,70.3,49.7,30.22,SSW,193,2.5,4.6,48,0.00,FEW,,0.00,120.4,WeatherDisplay:10.37,2013-05-24 22:44:00,
2013-05-24 17:49:00,70.4,50.3,30.22,East,84,2.1,10.4,49,0.00,FEW,,0.00,224.0,WeatherDisplay:10.37,2013-05-24 22:49:00,
2013-05-24 17:54:00,70.2,50.1,30.22,South,173,0.2,2.3,49,0.00,FEW,,0.00,117.6,WeatherDisplay:10.37,2013-05-24 22:54:00,
2013-05-24 18:00:00,70.0,50.5,30.22,ENE,71,1.2,3.5,50,0.00,FEW,,0.00,120.4,WeatherDisplay:10.37,2013-05-24 23:00:00,
2013-05-24 18:05:00,69.9,49.3,30.22,SSW,213,2.7,7.0,48,0.00,SCT,,0.00,123.2,WeatherDisplay:10.37,2013-05-24 23:05:00,
2013-05-24 18:10:00,69.9,49.3,30.22,South,176,1.1,2.0,48,0.00,SCT,,0.00,187.6,WeatherDisplay:10.37,2013-05-24 23:10:00,
2013-05-24 18:15:00,69.8,49.2,30.21,SSE,165,1.8,4.6,48,0.00,SCT,,0.00,88.2,WeatherDisplay:10.37,2013-05-24 23:15:00,
2013-05-24 18:21:00,69.5,48.4,30.21,South,171,2.3,8.1,47,0.00,SCT,,0.00,103.6,WeatherDisplay:10.37,2013-05-24 23:21:00,
2013-05-24 18:26:00,69.0,47.4,30.21,SSW,209,1.2,9.2,46,0.00,SCT,,0.00,86.8,WeatherDisplay:10.37,2013-05-24 23:26:00,
2013-05-24 18:31:00,68.7,47.6,30.20,SE,135,0.0,0.0,47,0.00,SCT,,0.00,106.4,WeatherDisplay:10.37,2013-05-24 23:31:00,
2013-05-24 18:36:00,68.5,48.0,30.20,SSE,159,2.2,5.8,48,0.00,SCT,,0.00,78.4,WeatherDisplay:10.37,2013-05-24 23:36:00,
2013-05-24 18:42:00,68.3,47.8,30.19,SE,130,1.0,3.5,48,0.00,SCT,,0.00,39.2,WeatherDisplay:10.37,2013-05-24 23:42:00,
2013-05-24 18:47:00,68.0,47.6,30.19,SE,124,0.0,3.5,48,0.00,SCT,,0.00,36.4,WeatherDisplay:10.37,2013-05-24 23:47:00,
2013-05-24 18:52:00,67.9,48.0,30.19,ESE,117,2.0,5.0,49,0.00,SCT,SCT,0.00,22.4,WeatherDisplay:10.37,2013-05-24 23:52:00,
2013-05-24 18:57:00,67.8,47.4,30.18,SE,139,0.0,10.0,48,0.00,SCT,SCT,0.00,15.4,WeatherDisplay:10.37,2013-05-24 23:57:00,
2013-05-24 19:02:00,67.6,48.3,30.19,SSE,156,1.0,4.0,50,0.00,BKN,BKN,0.00,15.4,WeatherDisplay:10.37,2013-05-25 00:02:00,
2013-05-24 19:07:00,67.4,47.6,30.19,SSE,155,3.8,6.9,49,0.00,BKN,,0.00,15.4,WeatherDisplay:10.37,2013-05-25 00:07:00,
2013-05-24 19:12:00,67.4,48.1,30.19,SSE,165,0.0,0.0,50,0.00,BKN,,0.00,12.6,WeatherDisplay:10.37,2013-05-25 00:12:00,
2013-05-24 19:18:00,67.3,47.5,30.18,SSE,149,0.0,1.2,49,0.00,BKN,,0.00,9.8,WeatherDisplay:10.37,2013-05-25 00:18:00,
2013-05-24 19:23:00,67.3,50.1,30.17,SE,124,0.0,0.0,54,0.00,BKN,,0.00,16.8,WeatherDisplay:10.37,2013-05-25 00:23:00,
2013-05-24 19:28:00,66.9,50.2,30.18,SE,140,0.1,1.2,55,0.00,BKN,,0.00,36.4,WeatherDisplay:10.37,2013-05-25 00:28:00,
2013-05-24 19:33:00,66.3,50.1,30.18,ESE,117,0.0,0.0,56,0.00,BKN,,0.00,68.6,WeatherDisplay:10.37,2013-05-25 00:33:00,
2013-05-24 19:39:00,65.9,50.2,30.17,ESE,123,0.0,0.0,57,0.00,BKN,,0.00,61.6,WeatherDisplay:10.37,2013-05-25 00:39:00,
2013-05-24 19:44:00,65.6,50.0,30.16,SSE,159,0.9,1.0,57,0.00,BKN,,0.00,36.4,WeatherDisplay:10.37,2013-05-25 00:44:00,
2013-05-24 19:49:00,65.5,50.8,30.16,SSE,158,0.7,3.5,59,0.00,BKN,,0.00,16.8,WeatherDisplay:10.37,2013-05-25 00:49:00,
2013-05-24 19:54:00,65.4,49.8,30.18,ENE,78,0.1,1.2,57,0.00,BKN,,0.00,15.4,WeatherDisplay:10.37,2013-05-25 00:54:00,
2013-05-24 20:00:00,65.3,49.2,30.19,East,101,0.1,2.3,56,0.00,BKN,,0.00,7.0,WeatherDisplay:10.37,2013-05-25 01:00:00,
2013-05-24 20:05:00,65.5,49.9,30.19,ESE,107,0.0,1.0,57,0.00,-RA,,0.00,7.0,WeatherDisplay:10.37,2013-05-25 01:05:00,
2013-05-24 20:10:00,65.6,49.0,30.18,SSE,147,0.0,0.0,55,0.00,-RA,,0.00,0.0,WeatherDisplay:10.37,2013-05-25 01:10:00,
2013-05-24 20:15:00,65.5,48.4,30.18,SE,127,0.0,1.2,54,0.00,-RA,,0.00,0.0,WeatherDisplay:10.37,2013-05-25 01:15:00,
2013-05-24 20:21:00,65.5,48.4,30.18,SE,131,0.0,1.2,54,0.00,-RA,,0.00,0.0,WeatherDisplay:10.37,2013-05-25 01:21:00,
2013-05-24 20:26:00,65.5,48.4,30.19,SE,130,0.2,2.3,54,0.00,-RA,,0.00,0.0,WeatherDisplay:10.37,2013-05-25 01:26:00,
2013-05-24 20:31:00,65.4,49.3,30.20,NE,54,0.2,1.2,56,0.00,-RA,,0.00,0.0,WeatherDisplay:10.37,2013-05-25 01:31:00,
2013-05-24 20:36:00,65.3,49.7,30.21,NNE,28,2.2,4.0,57,0.00,-RA,,0.00,0.0,WeatherDisplay:10.37,2013-05-25 01:36:00,
2013-05-24 20:42:00,65.3,50.1,30.23,ENE,78,0.2,1.2,58,0.00,-RA,,0.00,0.0,WeatherDisplay:10.37,2013-05-25 01:42:00,
2013-05-24 20:47:00,65.2,50.0,30.23,NE,50,0.0,3.5,58,0.00,-RA,,0.00,0.0,WeatherDisplay:10.37,2013-05-25 01:47:00,
2013-05-24 20:52:00,65.2,51.0,30.22,NE,38,1.0,5.0,60,0.00,-RA,-RA,0.00,0.0,WeatherDisplay:10.37,2013-05-25 01:52:00,
2013-05-24 20:57:00,65.0,51.2,30.21,NE,45,0.0,4.0,61,0.00,-RA,-RA,0.00,0.0,WeatherDisplay:10.37,2013-05-25 01:57:00,
2013-05-24 21:02:00,64.6,51.7,30.21,East,83,0.0,3.5,63,0.00,-RA,,0.00,0.0,WeatherDisplay:10.37,2013-05-25 02:02:00,
2013-05-24 21:07:00,64.2,51.3,30.21,ESE,103,0.0,0.0,63,0.00,-RA,,0.00,0.0,WeatherDisplay:10.37,2013-05-25 02:07:00,
2013-05-24 21:12:00,64.0,51.1,30.20,NE,40,0.5,3.5,63,0.00,-RA,,0.00,0.0,WeatherDisplay:10.37,2013-05-25 02:12:00,
2013-05-24 21:18:00,63.8,51.4,30.20,NE,48,0.1,2.3,64,0.00,-RA,,0.00,0.0,WeatherDisplay:10.37,2013-05-25 02:18:00,
2013-05-24 21:23:00,63.7,51.7,30.21,ENE,77,0.1,0.0,65,0.00,-RA,,0.00,0.0,WeatherDisplay:10.37,2013-05-25 02:23:00,
2013-05-24 21:28:00,63.6,51.2,30.20,ESE,107,1.2,3.5,64,0.00,-RA,,0.00,0.0,WeatherDisplay:10.37,2013-05-25 02:28:00,
2013-05-24 21:33:00,63.6,50.8,30.19,NE,46,1.2,3.5,63,0.00,-RA,,0.00,0.0,WeatherDisplay:10.37,2013-05-25 02:33:00,
2013-05-24 21:39:00,63.4,50.6,30.19,SE,126,0.4,3.5,63,0.00,-RA,,0.00,0.0,WeatherDisplay:10.37,2013-05-25 02:39:00,
2013-05-24 21:44:00,63.2,50.4,30.20,ESE,121,0.6,3.5,63,0.00,-RA,,0.00,0.0,WeatherDisplay:10.37,2013-05-25 02:44:00,
2013-05-24 21:49:00,63.0,50.2,30.20,NE,40,2.1,4.6,63,0.00,-RA,,0.00,0.0,WeatherDisplay:10.37,2013-05-25 02:49:00,
2013-05-24 21:55:00,62.9,50.1,30.20,North,11,0.3,3.5,63,0.00,-RA,,0.00,0.0,WeatherDisplay:10.37,2013-05-25 02:55:00,
2013-05-24 22:00:00,62.8,50.0,30.20,NE,55,0.0,0.0,63,0.00,-RA,,0.00,0.0,WeatherDisplay:10.37,2013-05-25 03:00:00,
2013-05-24 22:05:00,62.7,50.3,30.20,SE,130,0.4,0.0,64,0.00,-RA,,0.00,0.0,WeatherDisplay:10.37,2013-05-25 03:05:00,
2013-05-24 22:10:00,62.4,49.6,30.20,East,83,0.5,8.1,63,0.00,-RA,,0.00,0.0,WeatherDisplay:10.37,2013-05-25 03:10:00,
2013-05-24 22:16:00,62.2,49.9,30.21,East,87,0.2,1.0,64,0.00,-RA,,0.00,0.0,WeatherDisplay:10.37,2013-05-25 03:16:00,
2013-05-24 22:21:00,62.0,50.1,30.21,SSE,152,0.9,3.5,65,0.00,-RA,,0.00,0.0,WeatherDisplay:10.37,2013-05-25 03:21:00,
2013-05-24 22:26:00,61.8,49.9,30.21,SE,129,1.6,6.9,65,0.00,-RA,,0.00,0.0,WeatherDisplay:10.37,2013-05-25 03:26:00,
2013-05-24 22:31:00,61.5,49.2,30.22,ESE,112,1.9,10.4,64,0.00,-RA,,0.00,0.0,WeatherDisplay:10.37,2013-05-25 03:31:00,
2013-05-24 22:37:00,61.5,49.2,30.22,SE,137,1.1,3.5,64,0.00,-RA,,0.00,0.0,WeatherDisplay:10.37,2013-05-25 03:37:00,
2013-05-24 22:42:00,61.4,48.7,30.23,ESE,111,0.1,3.5,63,0.00,-RA,,0.00,0.0,WeatherDisplay:10.37,2013-05-25 03:42:00,
2013-05-24 22:47:00,61.4,48.3,30.23,SE,132,0.0,9.0,62,0.00,-RA,-RA,0.00,0.0,WeatherDisplay:10.37,2013-05-25 03:47:00,
2013-05-24 22:52:00,61.4,47.8,30.23,SE,130,0.0,1.2,61,0.00,-RA,,0.00,0.0,WeatherDisplay:10.37,2013-05-25 03:52:00,
2013-05-24 22:58:00,61.3,47.7,30.24,South,182,0.5,2.3,61,0.00,-RA,,0.00,0.0,WeatherDisplay:10.37,2013-05-25 03:58:00,
2013-05-24 23:01:00,61.3,47.7,30.24,East,98,0.1,1.2,61,0.00,SCT,,0.00,0.0,WeatherDisplay:10.37,2013-05-25 04:01:00,
2013-05-24 23:03:00,61.3,47.7,30.24,SSE,161,0.0,0.0,61,0.00,SCT,,0.00,0.0,WeatherDisplay:10.37,2013-05-25 04:03:00,
2013-05-24 23:07:00,61.2,47.6,30.23,SE,132,0.3,3.5,61,0.00,SCT,,0.00,0.0,WeatherDisplay:10.37,2013-05-25 04:07:00,
2013-05-24 23:12:00,61.1,47.5,30.23,East,94,1.2,3.5,61,0.00,SCT,,0.00,0.0,WeatherDisplay:10.37,2013-05-25 04:12:00,
2013-05-24 23:18:00,61.1,47.5,30.23,East,94,0.0,1.2,61,0.00,SCT,,0.00,0.0,WeatherDisplay:10.37,2013-05-25 04:18:00,
2013-05-24 23:23:00,61.0,47.4,30.23,SE,140,0.4,2.3,61,0.00,SCT,,0.00,0.0,WeatherDisplay:10.37,2013-05-25 04:23:00,
2013-05-24 23:28:00,61.0,47.4,30.23,East,90,0.1,2.3,61,0.00,SCT,,0.00,0.0,WeatherDisplay:10.37,2013-05-25 04:28:00,
2013-05-24 23:33:00,61.1,48.0,30.23,SE,145,0.0,0.0,62,0.00,SCT,,0.00,0.0,WeatherDisplay:10.37,2013-05-25 04:33:00,
2013-05-24 23:39:00,61.1,47.5,30.23,SE,128,0.0,0.0,61,0.00,SCT,,0.00,0.0,WeatherDisplay:10.37,2013-05-25 04:39:00,
2013-05-24 23:44:00,61.1,48.0,30.24,South,176,1.1,2.3,62,0.00,SCT,,0.00,0.0,WeatherDisplay:10.37,2013-05-25 04:44:00,
2013-05-24 23:49:00,61.1,48.0,30.24,NE,49,0.0,0.0,62,0.00,SCT,,0.00,0.0,WeatherDisplay:10.37,2013-05-25 04:49:00,
2013-05-24 23:54:00,61.1,48.0,30.24,SSE,163,0.7,5.0,62,0.00,SCT,,0.00,0.0,WeatherDisplay:10.37,2013-05-25 04:54:00,